Weather History for KPIH - September, 2013

Change the Weather History Date:

Sunday, September 8, 2013

  Actual Average Record
Temperature  
Mean Temperature 69 °F 62 °F  
Max Temperature 83 °F 80 °F 95 °F (1994)
Min Temperature 55 °F 45 °F 29 °F (2001)
Degree Days  
Heating Degree Days 0 4  
Month to date heating degree days 0 26  
Since 1 July heating degree days 0 72  
Cooling Degree Days 4 1  
Month to date cooling degree days 42 13  
Year to date cooling degree days 669 383  
Growing Degree Days 18 (Base 50)    
Moisture  
Dew Point 50 °F    
Average Humidity 55    
Maximum Humidity 83    
Minimum Humidity 26    
Precipitation  
Precipitation 0.00 in 0.03 in 0.76 in (1973)
Month to date precipitation 0.47 0.21  
Year to date precipitation 4.50 8.28  
Snow  
Snow 0.00 in - - ()
Month to date snowfall 0.0  
Since 1 July snowfall 0.0  
Since 1 September snowfall 0.0  
Snow Depth 0.00 in    
Sea Level Pressure  
Sea Level Pressure 29.91 in    
Wind  
Wind Speed 8 mph (SSW)    
Max Wind Speed 22 mph    
Max Gust Speed 26 mph    
Visibility 10 miles    
Events      
T = Trace of Precipitation, MM = Missing Value Source: NWS Daily Summary

Daily Weather History Graph

Daily Weather History Graph

Search for Another Location

Airport or City:

Trip Planner

Search our weather history database for the weather conditions in past years. The results will help you decide how hot, cold, wet, or windy it might be!

Date:

Astronomy

Sep. 08, 2013 Rise Set
Actual Time 7:02 AM MDT 7:52 PM MDT
Civil Twilight 6:33 AM MDT 8:20 PM MDT
Nautical Twilight 5:59 AM MDT 8:54 PM MDT
Astronomical Twilight 5:24 AM MDT 9:30 PM MDT
Moon 10:30 AM MDT (9/8) 9:23 PM MDT (9/8)
Length of Visible Light 13h 46m
Length of Day
12h 49m
Waxing Crescent, 11% of the Moon is Illuminated
Sep 8
Waxing Crescent
Sep 12
First Quarter
Sep 19
Full
Sep 26
Last Quarter
Oct 4
New

Hourly Weather History & Observations

Time (MDT) Temp. Dew Point Humidity Pressure Visibility Wind Dir Wind Speed Gust Speed Precip Events Conditions
12:53 AM 66.0 °F 48.9 °F 54% 29.97 in 10.0 mi WSW 11.5 mph - N/A   Clear
1:53 AM 57.9 °F 51.1 °F 78% 30.00 in 10.0 mi ESE 4.6 mph - N/A   Clear
2:53 AM 57.9 °F 51.1 °F 78% 30.00 in 10.0 mi East 6.9 mph - N/A   Clear
3:53 AM 59.0 °F 51.1 °F 75% 29.98 in 10.0 mi East 4.6 mph - N/A   Clear
4:53 AM 59.0 °F 51.1 °F 75% 29.97 in 10.0 mi East 3.5 mph - N/A   Clear
5:53 AM 55.9 °F 50.0 °F 80% 29.97 in 10.0 mi Calm Calm - N/A   Clear
6:53 AM 57.0 °F 50.0 °F 77% 29.97 in 10.0 mi ENE 4.6 mph - N/A   Partly Cloudy
7:53 AM 57.9 °F 52.0 °F 81% 29.98 in 10.0 mi Calm Calm - N/A   Partly Cloudy
8:53 AM 64.0 °F 54.0 °F 70% 29.98 in 10.0 mi NNW 5.8 mph - N/A   Mostly Cloudy
9:53 AM 68.0 °F 54.0 °F 61% 29.97 in 10.0 mi North 4.6 mph - N/A   Scattered Clouds
10:53 AM 73.9 °F 52.0 °F 46% 29.95 in 10.0 mi Calm Calm - N/A   Scattered Clouds
11:53 AM 75.9 °F 52.0 °F 43% 29.93 in 10.0 mi Variable 3.5 mph - N/A   Scattered Clouds
12:53 PM 79.0 °F 50.0 °F 36% 29.91 in 10.0 mi WSW 9.2 mph 20.7 mph N/A   Scattered Clouds
1:53 PM 78.1 °F 53.1 °F 42% 29.91 in 10.0 mi SW 4.6 mph - N/A   Scattered Clouds
2:53 PM 80.1 °F 52.0 °F 38% 29.88 in 10.0 mi SW 6.9 mph 18.4 mph N/A   Mostly Cloudy
3:53 PM 80.1 °F 52.0 °F 38% 29.85 in 10.0 mi SW 9.2 mph - N/A   Mostly Cloudy
4:53 PM 81.0 °F 51.1 °F 35% 29.83 in 10.0 mi SSW 9.2 mph - N/A   Scattered Clouds
5:53 PM 80.1 °F 42.1 °F 26% 29.83 in 10.0 mi South 19.6 mph - N/A   Partly Cloudy
6:53 PM 79.0 °F 48.0 °F 34% 29.82 in 10.0 mi SW 15.0 mph 20.7 mph N/A   Partly Cloudy
7:53 PM 73.9 °F 48.0 °F 40% 29.83 in 10.0 mi SSW 11.5 mph - N/A   Clear
8:53 PM 68.0 °F 48.9 °F 50% 29.85 in 10.0 mi SSW 9.2 mph - N/A   Clear
9:53 PM 70.0 °F 48.9 °F 47% 29.84 in 10.0 mi SSW 11.5 mph - N/A   Clear
10:53 PM 69.1 °F 48.9 °F 49% 29.84 in 10.0 mi SSW 12.7 mph - N/A   Clear
11:53 PM 66.9 °F 48.0 °F 51% 29.84 in 10.0 mi SSW 15.0 mph - N/A   Clear